This is the latest recevied weather packets stored in our database for station/object KD9JJA. If no packets are shown the sender has not sent any weather packets the latest 10 day(s).
| Time | Temp. | Humidity | Pressure | Rain* | Wind** | Luminosity | Snow |
|---|---|---|---|---|---|---|---|
| 1777960004 | 21.11° C | 56% | 1006.6 hPa | 0 mm | - | 0 W/m² | - |
| 1777959702 | 21.11° C | 55% | 1006.4 hPa | 0 mm | - | 0 W/m² | - |
| 1777959399 | 21.11° C | 56% | 1006.4 hPa | 0 mm | - | 0 W/m² | - |
| 1777959095 | 21.11° C | 59% | 1006.4 hPa | 0 mm | - | 0 W/m² | - |
| 1777958792 | 21.11° C | 56% | 1006.4 hPa | 0 mm | - | 0 W/m² | - |
| 1777958490 | 21.11° C | 59% | 1006.7 hPa | 0 mm | - | 0 W/m² | - |
| 1777958186 | 21.11° C | 56% | 1006.6 hPa | 0 mm | - | 0 W/m² | - |
| 1777957885 | 21.11° C | 56% | 1006.6 hPa | 0 mm | - | 0 W/m² | - |
| 1777957582 | 20.56° C | 58% | 1006.4 hPa | 0 mm | - | 0 W/m² | - |
| 1777957280 | 20.56° C | 58% | 1006.5 hPa | 0 mm | - | 0 W/m² | - |
| 1777956975 | 20.56° C | 57% | 1006.5 hPa | 0 mm | - | 0 W/m² | - |
| 1777956673 | 20.56° C | 56% | 1006.2 hPa | 0 mm | - | 0 W/m² | - |
| 1777956370 | 20.56° C | 60% | 1006.1 hPa | 0 mm | - | 0 W/m² | - |
| 1777956067 | 21.11° C | 57% | 1006.3 hPa | 0 mm | - | 0 W/m² | - |
| 1777955763 | 20.56° C | 57% | 1006.1 hPa | 0 mm | - | 0 W/m² | - |
| 1777955460 | 20.56° C | 58% | 1006.1 hPa | 0 mm | - | 0 W/m² | - |
| 1777955155 | 20.56° C | 58% | 1006.3 hPa | 0 mm | - | 0 W/m² | - |
| 1777954853 | 21.11° C | 58% | 1006.3 hPa | 0 mm | - | 0 W/m² | - |
| 1777954550 | 21.11° C | 57% | 1006.3 hPa | 0 mm | - | 0 W/m² | - |
| 1777954247 | 20.56° C | 57% | 1006.4 hPa | 0 mm | - | 0 W/m² | - |
| 1777953944 | 21.11° C | 55% | 1006.4 hPa | 0 mm | - | 0 W/m² | - |
| 1777953642 | 21.11° C | 59% | 1006.3 hPa | 0 mm | - | 0 W/m² | - |
| 1777953337 | 21.11° C | 56% | 1006.7 hPa | 0 mm | - | 0 W/m² | - |
| 1777953034 | 21.11° C | 59% | 1006.4 hPa | 0 mm | - | 0 W/m² | - |
| 1777952731 | 21.11° C | 56% | 1006.3 hPa | 0 mm | - | 0 W/m² | - |
* Rain latest hour (hover to see other rain measurements)
** Current wind speed in m/s (hover to see current wind gust speed)